FW6905 Weather Reports


Display with metric or nautical units.
time (UTC)temp
F
wind
direction
speed
MPH
gust
MPH
rain 1hr
in
rain 24hr
in
rain mn
in
humidity
%
barometer
mb
20260509042505 50 0 0.0 0.0 0.00 0.00 0.00 89 1019.8
20260509041506 50 0 0.0 0.0 0.00 0.00 0.00 88 1019.8
20260509041006 50 0 0.0 0.0 0.00 0.00 0.00 88 1019.8
20260509040506 50 0 0.0 0.0 0.00 0.00 0.00 88 1019.8
20260509040006 50 0 0.0 0.0 0.00 0.00 0.00 88 1019.8
20260509035506 50 249 0.0 2.0 0.00 0.00 0.00 88 1019.8
20260509035006 50 224 0.0 2.0 0.00 0.00 0.00 88 1019.8
20260509034506 50 301 0.0 2.0 0.00 0.00 0.00 87 1019.8
20260509033506 50 112 0.0 2.0 0.00 0.00 0.00 87 1018.8
20260509033005 50 100 0.0 2.0 0.00 0.00 0.00 88 1018.8
20260509032506 51 337 0.0 2.0 0.00 0.00 0.00 88 1018.8
20260509032006 51 0 0.0 0.0 0.00 0.00 0.00 87 1018.8
20260509031006 51 55 0.0 2.0 0.00 0.00 0.00 87 1018.8
20260509030506 51 43 1.0 2.0 0.00 0.00 0.00 87 1018.8
20260509030006 51 1 1.0 2.0 0.00 0.00 0.00 87 1018.8
20260509025506 51 0 0.0 0.0 0.00 0.00 0.00 87 1018.8
20260509025006 51 0 0.0 0.0 0.00 0.00 0.00 87 1018.8
20260509024506 51 0 0.0 0.0 0.00 0.00 0.00 87 1018.8
20260509024006 51 0 0.0 0.0 0.00 0.00 0.00 87 1018.8
20260509023506 51 0 0.0 0.0 0.00 0.00 0.00 87 1018.8
20260509021506 52 1 0.0 2.0 0.00 0.00 0.00 86 1018.8
20260509021005 52 358 0.0 2.0 0.00 0.00 0.00 86 1018.8
20260509020506 52 108 0.0 2.0 0.00 0.00 0.00 86 1018.8
20260509020005 52 112 0.0 2.0 0.00 0.00 0.00 86 1018.8
20260509015506 52 106 2.0 2.0 0.00 0.00 0.00 87 1018.8
20260509015006 52 90 1.0 2.0 0.00 0.00 0.00 86 1018.8
20260509014505 53 82 0.0 2.0 0.00 0.00 0.00 87 1018.8
20260509014006 53 47 2.0 2.0 0.00 0.00 0.00 87 1018.8
20260509013506 53 46 2.0 2.0 0.00 0.00 0.00 86 1018.8
20260509012505 53 69 2.0 3.0 0.00 0.00 0.00 87 1018.8
20260509012006 53 0 0.0 0.0 0.00 0.00 0.00 86 1018.8
20260509011506 53 0 0.0 0.0 0.00 0.00 0.00 86 1018.8
20260509011006 53 68 0.0 2.0 0.00 0.00 0.00 86 1019.8
20260509010506 53 68 0.0 2.0 0.00 0.00 0.00 86 1019.8
20260509010006 53 0 0.0 0.0 0.00 0.00 0.00 86 1019.8
20260509005506 53 35 0.0 2.0 0.00 0.00 0.00 86 1018.8
20260509004506 54 58 1.0 2.0 0.00 0.00 0.00 86 1018.8
20260509004006 54 0 0.0 0.0 0.00 0.00 0.00 86 1019.8
20260509003006 54 0 0.0 0.0 0.00 0.00 0.00 86 1019.8
20260509002505 54 0 0.0 0.0 0.00 0.00 0.00 86 1018.8
20260509001506 54 112 0.0 2.0 0.00 0.00 0.00 86 1018.8
20260509001006 54 102 0.0 2.0 0.00 0.00 0.00 86 1019.8
20260509000006 55 78 1.0 2.0 0.00 0.00 0.00 85 1019.8
20260508235506 55 105 0.0 2.0 0.00 0.00 0.00 85 1019.8
20260508235005 55 0 0.0 0.0 0.00 0.00 0.00 86 1019.8
20260508234506 55 22 0.0 2.0 0.00 0.00 0.00 85 1019.8
20260508234005 56 23 0.0 2.0 0.00 0.00 0.00 85 1019.8
20260508233506 56 34 1.0 2.0 0.00 0.00 0.00 84 1019.8
20260508233005 56 49 1.0 2.0 0.00 0.00 0.00 84 1019.8
20260508232506 56 45 1.0 2.0 0.00 0.00 0.00 84 1019.8
20260508232005 56 44 0.0 2.0 0.00 0.00 0.00 84 1019.8
20260508231005 56 112 0.0 2.0 0.00 0.00 0.00 84 1019.8
20260508230006 57 0 0.0 0.0 0.00 0.00 0.00 85 1019.8
20260508225005 57 135 0.0 2.0 0.00 0.00 0.00 84 1019.8
20260508223506 57 17 0.0 2.0 0.00 0.00 0.00 82 1019.8
20260508223005 57 112 0.0 2.0 0.00 0.00 0.00 84 1019.8
20260508222506 57 112 0.0 2.0 0.00 0.00 0.00 84 1019.8
20260508222005 57 0 0.0 0.0 0.00 0.00 0.00 82 1019.8
20260508221506 57 112 0.0 2.0 0.00 0.00 0.00 82 1019.8
20260508220506 58 111 1.0 2.0 0.00 0.00 0.00 82 1020.8
20260508220010 58 96 0.0 3.0 0.00 0.00 0.00 81 1020.8
20260508215506 58 59 1.0 3.0 0.00 0.00 0.00 82 1019.8
20260508214505 58 60 1.0 2.0 0.00 0.00 0.00 81 1019.8
20260508214006 58 68 0.0 2.0 0.00 0.00 0.00 82 1018.8
20260508213506 58 0 0.0 0.0 0.00 0.00 0.00 81 1018.8
20260508213006 58 0 0.0 0.0 0.00 0.00 0.00 82 1018.8
20260508212506 58 0 0.0 0.0 0.00 0.00 0.00 81 1019.8
20260508212005 58 0 0.0 0.0 0.00 0.00 0.00 81 1019.8
20260508211505 58 68 0.0 2.0 0.00 0.00 0.00 79 1019.8
20260508211006 58 68 0.0 2.0 0.00 0.00 0.00 80 1018.8
20260508210506 58 69 0.0 2.0 0.00 0.00 0.00 79 1018.8
20260508210005 58 68 0.0 2.0 0.00 0.00 0.00 79 1018.8
20260508205505 59 0 0.0 0.0 0.00 0.00 0.00 81 1018.8
20260508205006 59 0 0.0 0.0 0.00 0.00 0.00 78 1018.8
20260508204505 59 0 0.0 0.0 0.00 0.00 0.00 76 1018.8
20260508204005 59 0 0.0 0.0 0.00 0.00 0.00 76 1018.8
20260508203506 59 0 0.0 0.0 0.00 0.00 0.00 76 1018.8
20260508203005 59 0 0.0 0.0 0.00 0.00 0.00 76 1018.8
20260508202506 60 90 0.0 1.0 0.00 0.00 0.00 77 1017.7
20260508201506 60 0 0.0 0.0 0.00 0.00 0.00 74 1017.7
20260508201005 60 135 0.0 2.0 0.00 0.00 0.00 74 1017.7
20260508200506 60 158 0.0 2.0 0.00 0.00 0.00 73 1017.7
20260508200005 60 221 1.0 2.0 0.00 0.00 0.00 74 1017.7
20260508195506 61 304 0.0 2.0 0.00 0.00 0.00 72 1017.7
20260508195005 61 218 0.0 2.0 0.00 0.00 0.00 72 1017.7
20260508194506 61 204 0.0 2.0 0.00 0.00 0.00 72 1017.7
20260508194005 61 226 2.0 2.0 0.00 0.00 0.00 72 1016.7
20260508193505 62 288 0.0 3.0 0.00 0.00 0.00 71 1016.7
20260508193005 62 298 2.0 3.0 0.00 0.00 0.00 70 1016.7
20260508192506 62 68 0.0 2.0 0.00 0.00 0.00 70 1017.7
20260508192006 62 68 0.0 2.0 0.00 0.00 0.00 70 1017.7
20260508191505 62 68 1.0 2.0 0.00 0.00 0.00 70 1017.7
20260508191006 62 270 0.0 2.0 0.00 0.00 0.00 71 1017.7
20260508190006 63 255 0.0 2.0 0.00 0.00 0.00 67 1017.7
20260508185006 63 225 0.0 1.0 0.00 0.00 0.00 68 1016.7
20260508184505 64 0 0.0 0.0 0.00 0.00 0.00 66 1016.7
20260508184005 64 0 0.0 0.0 0.00 0.00 0.00 66 1016.7
20260508183505 64 181 0.0 1.0 0.00 0.00 0.00 66 1016.7
20260508183006 64 181 0.0 2.0 0.00 0.00 0.00 64 1016.7
20260508182505 64 181 0.0 2.0 0.00 0.00 0.00 63 1016.7
20260508182005 65 181 0.0 2.0 0.00 0.00 0.00 64 1016.7
20260508181506 65 188 0.0 2.0 0.00 0.00 0.00 62 1016.7
20260508181005 66 310 0.0 2.0 0.00 0.00 0.00 62 1016.7
20260508180505 66 219 2.0 3.0 0.00 0.00 0.00 61 1016.7
20260508180007 66 217 2.0 3.0 0.00 0.00 0.00 60 1016.7
20260508175506 67 321 0.0 2.0 0.00 0.00 0.00 59 1015.7
20260508175005 67 322 0.0 2.0 0.00 0.00 0.00 59 1015.7
20260508174006 68 257 1.0 2.0 0.00 0.00 0.00 57 1015.7
20260508173505 68 205 1.0 2.0 0.00 0.00 0.00 57 1015.7
20260508173006 69 260 0.0 2.0 0.00 0.00 0.00 56 1015.7
20260508172505 69 240 0.0 2.0 0.00 0.00 0.00 56 1015.7
20260508172005 69 229 0.0 1.0 0.00 0.00 0.00 56 1015.7
20260508171505 70 203 0.0 1.0 0.00 0.00 0.00 57 1015.7
20260508171005 70 158 0.0 2.0 0.00 0.00 0.00 54 1014.7
20260508165506 71 281 2.0 3.0 0.00 0.00 0.00 51 1015.7
20260508165005 71 312 1.0 2.0 0.00 0.00 0.00 49 1015.7
20260508164505 72 328 1.0 2.0 0.00 0.00 0.00 48 1015.7
20260508164006 72 276 0.0 2.0 0.00 0.00 0.00 46 1015.7
20260508163505 72 272 0.0 2.0 0.00 0.00 0.00 44 1015.7
20260508163006 72 186 0.0 2.0 0.00 0.00 0.00 43 1015.7
20260508161505 72 237 1.0 6.0 0.00 0.00 0.00 40 1015.7
20260508155006 73 258 4.0 7.0 0.00 0.00 0.00 41 1015.7
20260508154505 73 242 3.0 6.0 0.00 0.00 0.00 39 1015.7
20260508153006 74 273 3.0 8.0 0.00 0.00 0.00 39 1015.7
20260508152505 74 257 4.0 8.0 0.00 0.00 0.00 39 1015.7
20260508152006 74 245 2.0 6.0 0.00 0.00 0.00 38 1015.7
20260508151505 74 263 4.0 6.0 0.00 0.00 0.00 39 1015.7
20260508151006 74 254 4.0 8.0 0.00 0.00 0.00 38 1014.7
20260508150505 74 253 4.0 9.0 0.00 0.00 0.00 38 1014.7
20260508150006 75 262 4.0 9.0 0.00 0.00 0.00 38 1014.7
20260508145006 75 240 3.0 6.0 0.00 0.00 0.00 38 1015.7
20260508144505 75 248 4.0 8.0 0.00 0.00 0.00 38 1015.7
20260508144005 75 265 4.0 8.0 0.00 0.00 0.00 38 1015.7
20260508143505 75 264 5.0 9.0 0.00 0.00 0.00 39 1015.7
20260508143005 75 263 4.0 10.0 0.00 0.00 0.00 39 1015.7
20260508142505 75 275 4.0 10.0 0.00 0.00 0.00 39 1015.7
20260508142005 75 279 6.0 9.0 0.00 0.00 0.00 38 1015.7
20260508141506 75 270 4.0 7.0 0.00 0.00 0.00 38 1015.7
20260508140505 75 270 4.0 6.0 0.00 0.00 0.00 38 1015.7
20260508140005 75 34 1.0 4.0 0.00 0.00 0.00 38 1015.7
20260508135005 75 263 0.0 4.0 0.00 0.00 0.00 38 1015.7
20260508134505 75 226 2.0 6.0 0.00 0.00 0.00 38 1015.7
20260508133505 75 216 0.0 4.0 0.00 0.00 0.00 39 1015.7
20260508133006 75 255 3.0 4.0 0.00 0.00 0.00 39 1015.7
20260508132505 75 270 2.0 4.0 0.00 0.00 0.00 40 1016.7
20260508132006 75 281 2.0 4.0 0.00 0.00 0.00 41 1016.7
20260508131505 75 39 2.0 4.0 0.00 0.00 0.00 42 1016.7
20260508131005 75 316 1.0 3.0 0.00 0.00 0.00 41 1016.7
20260508130505 74 289 1.0 3.0 0.00 0.00 0.00 41 1016.7
20260508130006 74 22 1.0 3.0 0.00 0.00 0.00 41 1016.7
20260508125505 74 262 0.0 5.0 0.00 0.00 0.00 41 1016.7
20260508125005 74 270 1.0 5.0 0.00 0.00 0.00 40 1016.7
20260508124005 74 291 0.0 7.0 0.00 0.00 0.00 43 1016.7
20260508123506 74 276 3.0 7.0 0.00 0.00 0.00 43 1016.7
20260508123005 74 274 2.0 9.0 0.00 0.00 0.00 43 1016.7
20260508122005 74 245 3.0 5.0 0.00 0.00 0.00 44 1016.7
20260508121005 74 239 0.0 7.0 0.00 0.00 0.00 43 1016.7
20260508120506 73 193 2.0 7.0 0.00 0.00 0.00 44 1016.7
20260508115006 74 223 3.0 8.0 0.00 0.00 0.00 44 1016.7
20260508113505 73 195 5.0 11.0 0.00 0.00 0.00 45 1017.7
20260508112005 74 225 3.0 5.0 0.00 0.00 0.00 43 1016.7
20260508111506 74 245 2.0 6.0 0.00 0.00 0.00 44 1016.7
20260508111005 74 231 3.0 8.0 0.00 0.00 0.00 43 1017.7
20260508110505 74 212 5.0 8.0 0.00 0.00 0.00 43 1017.7
20260508110006 74 214 4.0 7.0 0.00 0.00 0.00 43 1017.7
20260508105005 74 200 5.0 8.0 0.00 0.00 0.00 44 1017.7
20260508104505 74 194 4.0 8.0 0.00 0.00 0.00 45 1017.7
20260508104005 74 198 3.0 11.0 0.00 0.00 0.00 46 1017.7
20260508103505 74 184 4.0 11.0 0.00 0.00 0.00 44 1017.7
20260508103005 74 187 7.0 10.0 0.00 0.00 0.00 45 1017.7
20260508101505 73 209 3.0 9.0 0.00 0.00 0.00 44 1017.7
20260508101005 73 152 1.0 6.0 0.00 0.00 0.00 46 1017.7
20260508100505 73 139 2.0 6.0 0.00 0.00 0.00 45 1017.7
20260508100005 72 126 1.0 5.0 0.00 0.00 0.00 45 1017.7
20260508095005 72 160 5.0 8.0 0.00 0.00 0.00 46 1017.7
20260508094005 72 129 4.0 7.0 0.00 0.00 0.00 45 1017.7
20260508093505 71 90 2.0 8.0 0.00 0.00 0.00 47 1017.7
20260508093005 71 83 2.0 9.0 0.00 0.00 0.00 48 1017.7
20260508092505 71 80 5.0 9.0 0.00 0.00 0.00 47 1017.7
20260508091505 70 311 3.0 5.0 0.00 0.00 0.00 51 1017.7
20260508091006 70 285 2.0 4.0 0.00 0.00 0.00 56 1017.7
20260508090505 69 292 1.0 4.0 0.00 0.00 0.00 57 1017.7
20260508090005 69 277 2.0 4.0 0.00 0.00 0.00 57 1017.7
20260508085506 68 252 2.0 4.0 0.00 0.00 0.00 58 1017.7
20260508085005 68 278 3.0 5.0 0.00 0.00 0.00 59 1017.7
20260508084505 67 90 2.0 6.0 0.00 0.00 0.00 58 1017.7
20260508084006 67 137 3.0 6.0 0.00 0.00 0.00 58 1017.7
20260508083505 66 148 4.0 7.0 0.00 0.00 0.00 59 1017.7
20260508082006 64 118 5.0 6.0 0.00 0.00 0.00 61 1017.7
20260508081005 63 139 2.0 6.0 0.00 0.00 0.00 62 1017.7
20260508080505 63 121 3.0 6.0 0.00 0.00 0.00 63 1017.7
20260508080005 62 134 3.0 4.0 0.00 0.00 0.00 64 1017.7
20260508075505 62 170 1.0 4.0 0.00 0.00 0.00 65 1018.8
20260508075005 61 163 2.0 6.0 0.00 0.00 0.00 65 1018.8
20260508074505 61 128 4.0 6.0 0.00 0.00 0.00 66 1018.8
20260508074005 61 99 2.0 5.0 0.00 0.00 0.00 66 1018.8
20260508073505 60 100 1.0 5.0 0.00 0.00 0.00 67 1018.8
20260508073006 60 110 3.0 6.0 0.00 0.00 0.00 67 1018.8
20260508072505 60 115 4.0 6.0 0.00 0.00 0.00 66 1017.7
20260508071505 59 129 4.0 7.0 0.00 0.00 0.00 68 1017.7
20260508070505 59 114 2.0 8.0 0.00 0.00 0.00 71 1018.8
20260508070005 58 95 3.0 4.0 0.00 0.00 0.00 72 1018.8
20260508065505 57 83 2.0 5.0 0.00 0.00 0.00 72 1018.8
20260508065005 57 91 4.0 5.0 0.00 0.00 0.00 73 1018.8
20260508064005 56 93 2.0 6.0 0.00 0.00 0.00 73 1018.8
20260508063505 55 77 5.0 9.0 0.00 0.00 0.00 73 1018.8
20260508063005 55 69 4.0 9.0 0.00 0.00 0.00 72 1018.8
20260508062505 55 83 4.0 7.0 0.00 0.00 0.00 74 1018.8
20260508062005 55 91 3.0 7.0 0.00 0.00 0.00 75 1018.8
20260508061505 54 101 4.0 7.0 0.00 0.00 0.00 75 1018.8
20260508061005 54 98 3.0 9.0 0.00 0.00 0.00 76 1018.8
20260508060505 54 93 6.0 9.0 0.00 0.00 0.00 76 1018.8
20260508060006 53 103 4.0 7.0 0.00 0.00 0.00 78 1018.8
20260508055005 53 66 6.0 9.0 0.00 0.00 0.00 79 1018.8
20260508054505 52 65 3.0 5.0 0.00 0.00 0.00 80 1018.8
20260508054005 52 69 2.0 7.0 0.00 0.00 0.00 80 1018.8
20260508053505 52 82 3.0 7.0 0.00 0.00 0.00 81 1018.8
20260508053004 52 93 2.0 6.0 0.00 0.00 0.00 81 1018.8
20260508052505 52 101 2.0 7.0 0.00 0.00 0.00 80 1017.7
20260508052005 51 108 3.0 9.0 0.00 0.00 0.00 81 1017.7
20260508051505 51 111 4.0 9.0 0.00 0.00 0.00 81 1017.7
20260508051005 51 102 5.0 9.0 0.00 0.00 0.00 81 1017.7
20260508050505 51 90 4.0 6.0 0.00 0.00 0.00 81 1017.7
20260508050005 51 80 3.0 5.0 0.00 0.00 0.00 81 1017.7
20260508045004 51 77 3.0 8.0 0.00 0.00 0.00 81 1018.8
20260508044006 51 97 6.0 9.0 0.00 0.00 0.00 81 1017.7
20260508043505 51 103 6.0 11.0 0.00 0.00 0.00 81 1017.7
20260508043005 51 98 5.0 11.0 0.00 0.00 0.00 81 1017.7